SITRO-AIS 11 (SHEFFER)

Last updated on Mon Sep 21 2026 00:03:45 GMT+0000 (Coordinated Universal Time)

1 57208U 23091AU 26263.56872188 .00016434 00000+0 38461-3 0 9993 2 57208 97.5001 337.0689 0006958 87.3361 272.8682 15.42186141179474
UTC large
Height (km)
Speed (km/s)
/
Latitude / Longitude
Inclination (degrees)
Orbital Period (minutes)
Azimuth
Elevation
Range (km)
Doppler Factor

Next 0 passes for location: London (51.5072 / 0.1276)

No passes found over London.
SITRO-AIS 11 (SHEFFER)